Find Kosmos-800

NORAD ID: 8645 Int'l Des: 1976-011 Owner: VMF Country: SU operational
LEOCIRCULARPOLAR

Aktuelle Ansicht

3D-Globus wird geladen...

About Kosmos-800

Kosmos-800 (NORAD 8645) is a satellite by VMF of SU. It operates in LEO, CIRCULAR, POLAR orbit

Nächste Überflüge

Passes for default location (London). Set your location on the main map for personalized predictions.

Höhenverlauf

Loading altitude history...

Zweizeiliger Elementsatz

1 08645U 76011A 26195.50715635 .00000050 00000-0 38185-4 0 9997
2 08645 82.9724 96.5755 0019921 264.8466 268.6749 13.72203409525131
Epoch: 14. Juli 2026 • Age: 10 hours

Aktueller Status

Höhe 1015.8 km
Apogäum / Perigäum N/A
Geschwindigkeit 7.34 km/s
Subsatellitenpunkt 61.27°N, 155.52°W
Typ other

Most Searched